Philadelphia, Tennessee, United States (37846)
Lat: 35.68N, Lon: 84.4W
Wx Zone: TNZ068
Local Info
Past Weather Observations for Today

NOTE: This archive is for the closest National Weather Service station to Philadelphia. Information may differ from the station used for current weather conditions.

Click here for Long-term Archive

Time Weather Temperature Dewpoint Humidity Pressure Winds Precip Visibility
14:53
Partly Cloudy
84°F / 29°C 63°F / 17°C 48% 30.09 in
(1019 mb)
Variable 3.5 mph
(Variable 6 kph)
- 10SM
13:53
Partly Cloudy
82°F / 28°C 63°F / 17°C 51% 30.12 in
(1020 mb)
NE 5.8 mph
(NE 9 kph)
- 10SM
12:53
Mostly Cloudy
81°F / 27°C 61°F / 16°C 51% 30.15 in
(1021 mb)
N 5.8 mph
(N 9 kph)
- 10SM
11:53
Overcast
79°F / 26°C 63°F / 17°C 58% 30.15 in
(1021 mb)
Variable 5.8 mph
(Variable 9 kph)
- 10SM
10:53
Mostly Cloudy
79°F / 26°C 66°F / 19°C 65% 30.18 in
(1022 mb)
NW 8.1 mph
(NW 13 kph)
- 10SM
09:53
Partly Cloudy
73°F / 23°C 68°F / 20°C 83% 30.18 in
(1022 mb)
NW 4.6 mph
(NW 7 kph)
- 10SM
09:02
Mostly Cloudy
Fog And Mist
70°F / 21°C 66°F / 19°C 88% 30.18 in
(1022 mb)
Calm - 6SM
08:53
Mostly Cloudy
Fog And Mist
70°F / 21°C 66°F / 19°C 88% 30.18 in
(1022 mb)
NNW 3.5 mph
(NNW 6 kph)
- 3SM
08:50
Mostly Cloudy
Fog And Mist
70°F / 21°C 66°F / 19°C 88% 30.18 in
(1022 mb)
NW 3.5 mph
(NW 6 kph)
- 3SM
08:38
Mostly Cloudy
Fog And Mist
68°F / 20°C 66°F / 19°C 94% 30.15 in
(1021 mb)
Variable 3.5 mph
(Variable 6 kph)
- 2 1/2SM
08:33
Mostly Cloudy
Fog And Mist
68°F / 20°C 66°F / 19°C 94% 30.15 in
(1021 mb)
W 3.5 mph
(W 6 kph)
- 1 1/2SM
08:27
Overcast
Fog And Mist
68°F / 20°C 66°F / 19°C 94% 30.15 in
(1021 mb)
Variable 3.5 mph
(Variable 6 kph)
- 1SM
08:19
Overcast
Fog
66°F / 19°C 66°F / 19°C 100% 30.15 in
(1021 mb)
Calm - 1/2SM
08:08
Obscured
Fog
66°F / 19°C 66°F / 19°C 100% 30.15 in
(1021 mb)
Calm - 1/4SM
07:53
Obscured
Fog
66°F / 19°C 66°F / 19°C 100% 30.15 in
(1021 mb)
Calm - 1/4SM
06:53
Obscured
Fog
66°F / 19°C 64°F / 18°C 94% 30.12 in
(1020 mb)
Calm - M1/4SM
05:53
Obscured
Fog
64°F / 18°C 64°F / 18°C 100% 30.12 in
(1020 mb)
Calm - 1/4SM
05:21
Obscured
Fog
64°F / 18°C 64°F / 18°C 100% 30.09 in
(1019 mb)
Calm - 1/4SM
04:53
Obscured
Fog
64°F / 18°C 63°F / 17°C 94% 30.09 in
(1019 mb)
ENE 3.5 mph
(ENE 6 kph)
- 1/4SM
03:53
Obscured
Fog
64°F / 18°C 64°F / 18°C 100% 30.09 in
(1019 mb)
Calm - 1/4SM
03:25
Obscured
Fog
64°F / 18°C 64°F / 18°C 100% 30.06 in
(1018 mb)
ESE 3.5 mph
(ESE 6 kph)
- 1/4SM
03:01
Obscured
Fog
64°F / 18°C 64°F / 18°C 100% 30.06 in
(1018 mb)
ENE 3.5 mph
(ENE 6 kph)
- 1/4SM
02:53
Obscured
Fog
64°F / 18°C 64°F / 18°C 100% 30.09 in
(1019 mb)
E 3.5 mph
(E 6 kph)
- 1/4SM
02:18
Obscured
Fog
64°F / 18°C 64°F / 18°C 100% 30.09 in
(1019 mb)
NE 3.5 mph
(NE 6 kph)
- 1/4SM
02:09
Obscured
Fog
64°F / 18°C 64°F / 18°C 100% 30.09 in
(1019 mb)
NE 3.5 mph
(NE 6 kph)
- 1/4SM
01:53
Obscured
Fog
64°F / 18°C 64°F / 18°C 100% 30.09 in
(1019 mb)
ENE 3.5 mph
(ENE 6 kph)
- 1/4SM
01:20
Obscured
Fog
64°F / 18°C 64°F / 18°C 100% 30.09 in
(1019 mb)
ENE 3.5 mph
(ENE 6 kph)
- 1/2SM
01:13
Partly Cloudy
Fog
66°F / 19°C 64°F / 18°C 94% 30.09 in
(1019 mb)
NE 3.5 mph
(NE 6 kph)
- 2SM
00:53
Partly Cloudy
Fog
66°F / 19°C 66°F / 19°C 100% 30.09 in
(1019 mb)
NE 3.5 mph
(NE 6 kph)
- 5SM
Time Weather Temperature Dewpoint Humidity Pressure Winds Precip Visibility


Weather for websites

WeatherForYou.com, LLC is not responsible for any damages or problems caused by this service. Current weather conditions are obtained from the closest station including government and personal stations which may have varying degrees of accuracy. Weather forecasts are derived from the NOAA NDFD. Like all things, this site belongs to Jesus Christ... He just trusts us to maintain it. If you have any questions or comments email webmaster@weatherforyou.com

Copyright © 2016, WeatherForYou.com LLC. All rights reserved.